User: anonymous   Login
Location: Byszew
(52.1813°N, 19.2693°E)
Time: 21:38:33
(UTC+00:00)
Language:

OPS 6432 - Orbit

View from above orbital plane
View from above orbital plane
View from above satellite
View from above satellite

Ground track
Ground track

The orbit data is extracted from the following two-line orbital elements,

1 14112U 83056A   21089.83367541 0.00002000  00000-0  13163-3 0    00
2 14112  63.2782 341.1397 0906434  96.8827 263.1173 13.58448586    08
Epoch (UTC): 30 March 2021 20:00:29
Eccentricity: 0.0906434
inclination: 63.2782°
perigee height: 369 km
apogee height: 1714 km
right ascension of ascending node: 341.1397°
argument of perigee: 96.8827°
revolutions per day: 13.58448586
mean anomaly at epoch: 263.1173°
orbit number at epoch: 0

The dashed part of the orbit path shows where the satellite is in the earth's shadow,  

DLR